weather.gov     
National Weather Service

Terminal Aerodrome Forecast
NWS Homepage
This page is being discontinued on March 12, 2014.
The same data is available at this site. Please update your bookmarks.
Thank you, and we apologize for the inconvenience.
Please send an email to SR-SRH.Webmaster@noaa.gov with any concerns.


Current Version
Previous Version:    01  02  03  04  05  06  07  08  09  10  11  12  13  14  
[Printable]
672
FTUS41 KGYX 251401 AAB
TAFLEB
TAF AMD
KLEB 251401Z 2514/2612 00000KT 1/2SM FG VV001
     FM251430 24005KT P6SM SCT250
     FM252300 23005KT P6SM -SHRA BKN050 OVC100
     FM260300 27007KT P6SM -SHRA BKN025 OVC040=




672
FTUS41 KGYX 251401 AAB
TAFLEB
TAF AMD
KLEB 251401Z 2514/2612 00000KT 1/2SM FG VV001
     FM251430 24005KT P6SM SCT250
     FM252300 23005KT P6SM -SHRA BKN050 OVC100
     FM260300 27007KT P6SM -SHRA BKN025 OVC040=


U.S. Dept. of Commerce
NOAA National Weather Service
1325 East West Highway
Silver Spring, MD 20910
E-mail: w-nws.webmaster@noaa.gov
Page last modified: May 16, 2007
NATIONAL WEATHER SERVICE: for Safety, for Work, for Fun - FOR LIFE